Weather History for Mount Pleasant, MI

Change the Weather History Date:

Friday, November 30, 2012

  Actual Average (KAMN) Record (KAMN)
Temperature  
Mean Temperature 34 °F -  
Max Temperature 36 °F 39 °F 64 °F (1998)
Min Temperature 33 °F 26 °F 2 °F (1958)
Degree Days  
Heating Degree Days 30    
Moisture  
Dew Point 32 °F    
Average Humidity 87    
Maximum Humidity 91    
Minimum Humidity 82    
Precipitation  
Precipitation 0.00 in - - ()
Sea Level Pressure  
Sea Level Pressure 30.22 in    
Wind  
Wind Speed 10 mph (ENE)    
Max Wind Speed 15 mph    
Max Gust Speed 24 mph    
Visibility 7 miles    
Events      
Averages and records for this station are not official NWS values.
T = Trace of Precipitation, MM = Missing Value Source: NWS Daily Summary

Daily Weather History Graph

Daily Weather History Graph

Search for Another Location

Airport:

Trip Planner

Search our weather history database for the weather conditions in past years. The results will help you decide how hot, cold, wet, or windy it might be!

Date:

Astronomy

Nov. 30, 2012 Rise Set
Actual Time 7:51 AM EST 5:03 PM EST
Civil Twilight 7:19 AM EST 5:35 PM EST
Nautical Twilight 6:44 AM EST 6:11 PM EST
Astronomical Twilight 6:09 AM EST 6:45 PM EST
Moon 6:58 PM EST (11/30) 9:23 AM EST (11/30)
Length of Visible Light 10h 15m
Length of Day
9h 11m
Waning Gibbous, 96% of the Moon is Illuminated
Nov 30
Waning Gibbous
Dec 6
Last Quarter
Dec 13
New
Dec 20
First Quarter
Dec 28
Full

Hourly Weather History & Observations

Time (EST) Temp. Windchill Dew Point Humidity Pressure Visibility Wind Dir Wind Speed Gust Speed Precip Events Conditions
12:15 AM 36.1 °F 29.9 °F 32.4 °F 86% 30.21 in 10.0 mi NE 8.1 mph - N/A   Overcast
12:35 AM 35.8 °F 30.1 °F 32.2 °F 87% 30.21 in 10.0 mi ENE 6.9 mph - N/A   Overcast
12:56 AM 35.8 °F 28.8 °F 32.2 °F 87% 30.21 in 10.0 mi ENE 9.2 mph - N/A   Overcast
1:15 AM 35.8 °F 28.8 °F 32.2 °F 87% 30.21 in 10.0 mi ENE 9.2 mph - N/A   Overcast
1:35 AM 35.8 °F 27.8 °F 32.2 °F 87% 30.21 in 10.0 mi ENE 11.5 mph - N/A   Overcast
1:56 AM 35.6 °F 28.6 °F 32.0 °F 87% 30.21 in 10.0 mi ENE 9.2 mph 17.3 mph N/A   Overcast
2:15 AM 35.2 °F 27.1 °F 32.0 °F 88% 30.21 in 10.0 mi ENE 11.5 mph 17.3 mph N/A   Overcast
2:35 AM 35.2 °F 27.6 °F 32.0 °F 88% 30.21 in 10.0 mi NE 10.4 mph - N/A   Overcast
2:56 AM 35.4 °F 29.7 °F 32.0 °F 87% 30.21 in 10.0 mi ENE 6.9 mph - N/A   Overcast
3:15 AM 35.6 °F 28.6 °F 32.0 °F 87% 30.22 in 10.0 mi NE 9.2 mph - N/A   Overcast
3:35 AM 35.2 °F 28.1 °F 32.0 °F 88% 30.21 in 10.0 mi NE 9.2 mph - N/A   Overcast
3:56 AM 35.1 °F 27.9 °F 32.0 °F 89% 30.21 in 10.0 mi ENE 9.2 mph - N/A   Overcast
4:15 AM 34.9 °F 28.3 °F 32.0 °F 89% 30.20 in 10.0 mi ENE 8.1 mph - N/A   Overcast
4:35 AM 34.7 °F 25.9 °F 32.0 °F 90% 30.21 in 10.0 mi ENE 12.7 mph 20.7 mph N/A   Overcast
4:55 AM 34.7 °F 25.9 °F 31.8 °F 89% 30.21 in 10.0 mi ENE 12.7 mph - N/A   Overcast
5:15 AM 34.5 °F 26.2 °F 31.8 °F 90% 30.21 in 10.0 mi ENE 11.5 mph 18.4 mph N/A   Overcast
5:35 AM 34.3 °F 25.5 °F 31.6 °F 90% 30.21 in 10.0 mi ENE 12.7 mph 19.6 mph N/A   Overcast
5:55 AM 34.2 °F 25.7 °F 31.5 °F 90% 30.20 in 10.0 mi ENE 11.5 mph 24.2 mph N/A   Overcast
6:15 AM 34.0 °F 26.6 °F 31.5 °F 90% 30.21 in 7.0 mi ENE 9.2 mph 17.3 mph N/A   Overcast
6:35 AM 34.0 °F 26.6 °F 31.5 °F 90% 30.20 in 7.0 mi East 9.2 mph - N/A   Overcast
6:55 AM 34.0 °F 25.5 °F 31.1 °F 89% 30.21 in 7.0 mi ENE 11.5 mph 16.1 mph N/A   Overcast
7:15 AM 34.0 °F 26.6 °F 31.1 °F 89% 30.22 in 7.0 mi ENE 9.2 mph 18.4 mph N/A   Overcast
7:35 AM 33.8 °F 24.8 °F 31.1 °F 90% 30.22 in 10.0 mi ENE 12.7 mph 18.4 mph N/A   Overcast
7:55 AM 33.8 °F 23.9 °F 30.9 °F 89% 30.23 in 10.0 mi ENE 15.0 mph 21.9 mph N/A   Overcast
8:15 AM 33.8 °F 24.8 °F 30.2 °F 87% 30.23 in 10.0 mi ENE 12.7 mph 16.1 mph N/A   Overcast
8:36 AM 33.6 °F 24.6 °F 29.7 °F 85% 30.23 in 10.0 mi ENE 12.7 mph 19.6 mph N/A   Overcast
8:55 AM 33.4 °F 25.9 °F 29.3 °F 85% 30.23 in 10.0 mi ENE 9.2 mph - N/A   Overcast
9:15 AM 33.8 °F 25.3 °F 28.9 °F 82% 30.23 in 10.0 mi ENE 11.5 mph 18.4 mph N/A   Overcast
9:36 AM 33.8 °F 24.3 °F 28.8 °F 82% 30.23 in 10.0 mi ENE 13.8 mph 18.4 mph N/A   Overcast
9:55 AM 33.8 °F 24.3 °F 28.8 °F 82% 30.23 in 10.0 mi East 13.8 mph - N/A   Overcast
10:15 AM 34.2 °F 25.2 °F 29.1 °F 82% 30.23 in 10.0 mi ENE 12.7 mph 16.1 mph N/A   Overcast
10:35 AM 34.3 °F 27.0 °F 29.3 °F 82% 30.23 in 10.0 mi NE 9.2 mph - N/A   Overcast
10:55 AM 34.7 °F 25.9 °F 29.8 °F 82% 30.23 in 10.0 mi ENE 12.7 mph 16.1 mph N/A   Overcast
11:15 AM 34.7 °F 26.4 °F 30.2 °F 84% 30.22 in 7.0 mi ENE 11.5 mph - N/A   Overcast
11:35 AM 35.2 °F 27.1 °F 30.7 °F 84% 30.22 in 7.0 mi ENE 11.5 mph - N/A   Overcast
11:55 AM 35.4 °F 28.4 °F 30.9 °F 84% 30.21 in 7.0 mi ENE 9.2 mph - N/A   Overcast
12:15 PM 35.2 °F 28.8 °F 31.1 °F 85% 30.21 in 5.0 mi ENE 8.1 mph 16.1 mph N/A   Overcast
12:35 PM 35.6 °F 28.6 °F 31.3 °F 84% 30.20 in 5.0 mi NE 9.2 mph - N/A   Haze
12:55 PM 35.8 °F 28.8 °F 31.6 °F 85% 30.19 in 5.0 mi ENE 9.2 mph - N/A   Haze
1:15 PM 35.8 °F 28.8 °F 31.6 °F 85% 30.19 in 5.0 mi NE 9.2 mph 16.1 mph N/A   Overcast
1:35 PM 35.8 °F 28.8 °F 31.8 °F 86% 30.19 in 5.0 mi NNE 9.2 mph - N/A   Overcast
1:55 PM 35.6 °F 28.0 °F 31.8 °F 86% 30.19 in 5.0 mi NE 10.4 mph - N/A   Overcast
2:15 PM 35.8 °F 27.8 °F 32.0 °F 86% 30.19 in 5.0 mi NE 11.5 mph - N/A   Overcast
2:35 PM 35.8 °F 27.8 °F 32.0 °F 86% 30.19 in 5.0 mi ENE 11.5 mph 17.3 mph N/A   Overcast
2:55 PM 35.8 °F 28.3 °F 32.0 °F 86% 30.20 in 5.0 mi NE 10.4 mph 16.1 mph N/A   Overcast
3:16 PM 35.8 °F 27.3 °F 32.0 °F 86% 30.19 in 4.0 mi ENE 12.7 mph 17.3 mph N/A   Overcast
3:35 PM 35.8 °F 27.8 °F 32.0 °F 86% 30.19 in 4.0 mi ENE 11.5 mph - N/A   Overcast
3:55 PM 36.0 °F 28.5 °F 32.0 °F 86% 30.19 in 4.0 mi ENE 10.4 mph - N/A   Overcast
4:16 PM 36.0 °F 27.5 °F 32.0 °F 86% 30.21 in 4.0 mi NE 12.7 mph 19.6 mph N/A   Overcast
4:35 PM 36.1 °F 27.7 °F 32.4 °F 86% 30.21 in 4.0 mi ENE 12.7 mph 16.1 mph N/A   Overcast
4:55 PM 36.3 °F 28.4 °F 32.7 °F 87% 30.21 in 5.0 mi ENE 11.5 mph - N/A   Overcast
5:15 PM 36.5 °F 30.3 °F 32.9 °F 87% 30.22 in 5.0 mi NE 8.1 mph 16.1 mph N/A   Overcast
5:35 PM 36.5 °F 31.8 °F 33.1 °F 87% 30.23 in 5.0 mi ENE 5.8 mph - N/A   Overcast
5:55 PM 36.5 °F 28.7 °F 33.3 °F 88% 30.22 in 5.0 mi ENE 11.5 mph - N/A   Overcast
6:15 PM 36.5 °F 29.7 °F 33.1 °F 87% 30.23 in 5.0 mi ENE 9.2 mph 17.3 mph N/A   Overcast
6:35 PM 36.5 °F 28.7 °F 33.1 °F 87% 30.23 in 5.0 mi ENE 11.5 mph 16.1 mph N/A   Overcast
7:15 PM 36.1 °F 29.3 °F 33.1 °F 89% 30.24 in 5.0 mi ENE 9.2 mph - N/A   Overcast
7:35 PM 36.1 °F 29.9 °F 32.9 °F 88% 30.26 in 7.0 mi ENE 8.1 mph - N/A   Overcast
7:56 PM 36.1 °F 29.3 °F 32.9 °F 88% 30.26 in 7.0 mi ENE 9.2 mph - N/A   Overcast
8:15 PM 36.0 °F 32.1 °F 32.9 °F 89% 30.26 in 5.0 mi ENE 4.6 mph - N/A   Overcast
8:35 PM 36.0 °F 30.3 °F 33.1 °F 89% 30.26 in 5.0 mi ENE 6.9 mph - N/A   Overcast
8:56 PM 35.8 °F 30.1 °F 33.1 °F 90% 30.26 in 5.0 mi ENE 6.9 mph - N/A   Overcast
9:15 PM 35.8 °F 30.1 °F 33.1 °F 90% 30.25 in 5.0 mi ENE 6.9 mph - N/A   Overcast
9:35 PM 35.6 °F 29.2 °F 33.1 °F 91% 30.24 in 5.0 mi ENE 8.1 mph - N/A   Overcast
9:56 PM 35.6 °F 28.6 °F 32.9 °F 90% 30.23 in 5.0 mi East 9.2 mph - N/A   Overcast
10:15 PM 35.2 °F 27.6 °F 32.9 °F 91% 30.23 in 5.0 mi East 10.4 mph - N/A   Overcast
10:35 PM 35.2 °F 28.8 °F 32.9 °F 91% 30.23 in 5.0 mi East 8.1 mph - N/A   Overcast
10:55 PM 35.2 °F 29.5 °F 32.9 °F 91% 30.23 in 5.0 mi ENE 6.9 mph - N/A   Overcast
11:15 PM 35.2 °F 30.3 °F 32.5 °F 90% 30.24 in 5.0 mi ENE 5.8 mph - N/A   Overcast
11:35 PM 35.2 °F 30.3 °F 32.4 °F 89% 30.25 in 5.0 mi ENE 5.8 mph - N/A   Overcast